| time (UTC) | temp F | wind direction | speed MPH | gust MPH | rain 1hr in | rain 24hr in | rain mn in | humidity % | barometer mb |
| 20260904005554 | 71 | 236 | 5.0 | 14.0 | 0.00 | 0.00 | 0.00 | 76 | 1010.6 |
| 20260904005054 | 72 | 288 | 7.0 | 14.0 | 0.00 | 0.00 | 0.00 | 75 | 1010.6 |
| 20260904004605 | 72 | 187 | 6.0 | 14.0 | 0.00 | 0.00 | 0.00 | 76 | 1010.6 |
| 20260904004054 | 72 | 280 | 7.0 | 14.0 | 0.00 | 0.00 | 0.00 | 75 | 1010.6 |
| 20260904003555 | 72 | 271 | 4.0 | 14.0 | 0.00 | 0.00 | 0.00 | 74 | 1010.7 |
| 20260904003102 | 72 | 196 | 4.0 | 14.0 | 0.00 | 0.00 | 0.00 | 74 | 1010.6 |
| 20260904002556 | 73 | 228 | 2.0 | 11.0 | 0.00 | 0.00 | 0.00 | 73 | 1010.7 |
| 20260904002051 | 73 | 271 | 5.0 | 12.0 | 0.00 | 0.00 | 0.00 | 72 | 1010.7 |
| 20260904001558 | 73 | 258 | 3.0 | 13.0 | 0.00 | 0.00 | 0.00 | 71 | 1010.8 |
| 20260904001054 | 73 | 244 | 6.0 | 13.0 | 0.00 | 0.00 | 0.00 | 73 | 1010.9 |
| 20260904000554 | 73 | 0 | 7.0 | 12.0 | 0.00 | 0.00 | 0.00 | 71 | 1010.8 |
| 20260904000106 | 73 | 171 | 5.0 | 13.0 | 0.00 | 0.00 | 0.00 | 71 | 1010.8 |
| 20260903235555 | 73 | 172 | 4.0 | 14.0 | 0.00 | 0.00 | 0.00 | 73 | 1010.9 |
| 20260903235051 | 73 | 223 | 5.0 | 14.0 | 0.00 | 0.00 | 0.00 | 74 | 1010.9 |
| 20260903234603 | 73 | 156 | 4.0 | 11.0 | 0.00 | 0.00 | 0.00 | 73 | 1010.9 |
| 20260903234051 | 73 | 232 | 3.0 | 12.0 | 0.00 | 0.00 | 0.00 | 74 | 1010.9 |
| 20260903233550 | 73 | 212 | 6.0 | 14.0 | 0.00 | 0.00 | 0.00 | 74 | 1011.0 |
| 20260903233059 | 73 | 197 | 6.0 | 14.0 | 0.00 | 0.00 | 0.00 | 73 | 1011.1 |
| 20260903232554 | 73 | 165 | 5.0 | 12.0 | 0.00 | 0.00 | 0.00 | 72 | 1011.1 |
| 20260903232052 | 73 | 300 | 5.0 | 11.0 | 0.00 | 0.00 | 0.00 | 73 | 1011.1 |
| 20260903231609 | 73 | 182 | 5.0 | 11.0 | 0.00 | 0.00 | 0.00 | 72 | 1011.2 |
| 20260903231054 | 73 | 215 | 5.0 | 14.0 | 0.00 | 0.00 | 0.00 | 73 | 1011.2 |
| 20260903230600 | 73 | 192 | 3.0 | 14.0 | 0.00 | 0.00 | 0.00 | 73 | 1011.1 |
| 20260903230111 | 74 | 284 | 5.0 | 14.0 | 0.00 | 0.00 | 0.00 | 72 | 1011.3 |
| 20260903225619 | 73 | 219 | 4.0 | 15.0 | 0.00 | 0.00 | 0.00 | 73 | 1011.3 |
| 20260903225055 | 73 | 163 | 7.0 | 15.0 | 0.00 | 0.00 | 0.00 | 72 | 1011.4 |
| 20260903224601 | 74 | 284 | 7.0 | 13.0 | 0.00 | 0.00 | 0.00 | 73 | 1011.4 |
| 20260903224051 | 74 | 200 | 3.0 | 11.0 | 0.00 | 0.00 | 0.00 | 71 | 1011.4 |
| 20260903223557 | 74 | 294 | 3.0 | 13.0 | 0.00 | 0.00 | 0.00 | 72 | 1011.5 |
| 20260903223112 | 74 | 200 | 5.0 | 13.0 | 0.00 | 0.00 | 0.00 | 73 | 1011.6 |
| 20260903222550 | 74 | 279 | 7.0 | 12.0 | 0.00 | 0.00 | 0.00 | 72 | 1011.7 |
| 20260903222056 | 74 | 193 | 5.0 | 11.0 | 0.00 | 0.00 | 0.00 | 71 | 1011.7 |
| 20260903221556 | 74 | 192 | 5.0 | 11.0 | 0.00 | 0.00 | 0.00 | 72 | 1011.8 |
| 20260903221057 | 74 | 287 | 4.0 | 12.0 | 0.00 | 0.00 | 0.00 | 72 | 1011.9 |
| 20260903220554 | 74 | 249 | 5.0 | 12.0 | 0.00 | 0.00 | 0.00 | 71 | 1011.9 |
| 20260903220111 | 74 | 191 | 6.0 | 15.0 | 0.00 | 0.00 | 0.00 | 72 | 1011.9 |
| 20260903215551 | 74 | 246 | 5.0 | 15.0 | 0.00 | 0.00 | 0.00 | 71 | 1011.9 |
| 20260903215053 | 74 | 213 | 6.0 | 15.0 | 0.00 | 0.00 | 0.00 | 73 | 1012.0 |
| 20260903214606 | 74 | 250 | 8.0 | 15.0 | 0.00 | 0.00 | 0.00 | 72 | 1012.0 |
| 20260903214054 | 74 | 246 | 7.0 | 15.0 | 0.00 | 0.00 | 0.00 | 70 | 1012.0 |
| 20260903213550 | 74 | 178 | 5.0 | 13.0 | 0.00 | 0.00 | 0.00 | 72 | 1012.1 |
| 20260903213100 | 74 | 224 | 5.0 | 12.0 | 0.00 | 0.00 | 0.00 | 71 | 1012.0 |
| 20260903212554 | 73 | 260 | 6.0 | 12.0 | 0.00 | 0.00 | 0.00 | 73 | 1012.0 |
| 20260903212051 | 73 | 279 | 6.0 | 14.0 | 0.00 | 0.00 | 0.00 | 71 | 1012.0 |
| 20260903211612 | 73 | 259 | 6.0 | 14.0 | 0.00 | 0.00 | 0.00 | 73 | 1012.1 |
| 20260903211054 | 73 | 290 | 8.0 | 16.0 | 0.00 | 0.00 | 0.00 | 73 | 1012.0 |
| 20260903210554 | 73 | 302 | 8.0 | 16.0 | 0.00 | 0.00 | 0.00 | 72 | 1012.2 |
| 20260903210105 | 73 | 260 | 7.0 | 14.0 | 0.00 | 0.00 | 0.00 | 71 | 1012.2 |
| 20260903205551 | 73 | 307 | 7.0 | 15.0 | 0.00 | 0.00 | 0.00 | 71 | 1012.3 |
| 20260903205054 | 74 | 270 | 6.0 | 15.0 | 0.00 | 0.00 | 0.00 | 71 | 1012.4 |
| 20260903204605 | 74 | 234 | 6.0 | 12.0 | 0.00 | 0.00 | 0.00 | 72 | 1012.4 |
| 20260903204051 | 74 | 293 | 4.0 | 13.0 | 0.00 | 0.00 | 0.00 | 72 | 1012.5 |
| 20260903203551 | 73 | 251 | 7.0 | 14.0 | 0.00 | 0.00 | 0.00 | 72 | 1012.4 |
| 20260903203100 | 73 | 312 | 6.0 | 14.0 | 0.00 | 0.00 | 0.00 | 71 | 1012.3 |
| 20260903202554 | 74 | 263 | 5.0 | 13.0 | 0.00 | 0.00 | 0.00 | 71 | 1012.4 |
| 20260903202051 | 74 | 274 | 8.0 | 13.0 | 0.00 | 0.00 | 0.00 | 71 | 1012.4 |
| 20260903201555 | 74 | 284 | 5.0 | 13.0 | 0.00 | 0.00 | 0.00 | 71 | 1012.4 |
| 20260903201052 | 73 | 205 | 6.0 | 13.0 | 0.00 | 0.00 | 0.00 | 73 | 1012.5 |
| 20260903200551 | 73 | 239 | 7.0 | 13.0 | 0.00 | 0.00 | 0.00 | 73 | 1012.6 |
| 20260903200109 | 73 | 282 | 6.0 | 13.0 | 0.00 | 0.00 | 0.00 | 72 | 1012.6 |
| 20260903195550 | 74 | 179 | 6.0 | 11.0 | 0.00 | 0.00 | 0.00 | 73 | 1012.7 |
| 20260903195057 | 73 | 184 | 5.0 | 14.0 | 0.00 | 0.00 | 0.00 | 72 | 1012.7 |
| 20260903194558 | 73 | 227 | 3.0 | 14.0 | 0.00 | 0.00 | 0.00 | 73 | 1012.7 |
| 20260903194054 | 73 | 205 | 6.0 | 13.0 | 0.00 | 0.00 | 0.00 | 72 | 1012.8 |
| 20260903193554 | 74 | 172 | 5.0 | 12.0 | 0.00 | 0.00 | 0.00 | 71 | 1012.9 |
| 20260903193105 | 74 | 286 | 4.0 | 11.0 | 0.00 | 0.00 | 0.00 | 71 | 1012.9 |
| 20260903192551 | 74 | 168 | 4.0 | 11.0 | 0.00 | 0.00 | 0.00 | 73 | 1013.1 |
| 20260903192050 | 74 | 168 | 5.0 | 11.0 | 0.00 | 0.00 | 0.00 | 72 | 1013.0 |
| 20260903191608 | 74 | 219 | 4.0 | 11.0 | 0.00 | 0.00 | 0.00 | 73 | 1013.1 |
| 20260903191051 | 73 | 279 | 5.0 | 13.0 | 0.00 | 0.00 | 0.00 | 72 | 1013.1 |
| 20260903190555 | 73 | 241 | 8.0 | 13.0 | 0.00 | 0.00 | 0.00 | 71 | 1013.2 |
| 20260903190103 | 74 | 284 | 5.0 | 12.0 | 0.00 | 0.00 | 0.00 | 70 | 1013.2 |
| 20260903185554 | 74 | 210 | 6.0 | 11.0 | 0.00 | 0.00 | 0.00 | 71 | 1013.2 |
| 20260903185054 | 74 | 290 | 3.0 | 8.0 | 0.00 | 0.00 | 0.00 | 70 | 1013.3 |
| 20260903184604 | 74 | 200 | 2.0 | 10.0 | 0.00 | 0.00 | 0.00 | 69 | 1013.3 |
| 20260903184054 | 74 | 293 | 3.0 | 10.0 | 0.00 | 0.00 | 0.00 | 69 | 1013.3 |
| 20260903183551 | 74 | 265 | 2.0 | 10.0 | 0.00 | 0.00 | 0.00 | 69 | 1013.4 |
| 20260903183121 | 75 | 195 | 5.0 | 14.0 | 0.00 | 0.00 | 0.00 | 67 | 1013.5 |
| 20260903182554 | 75 | 198 | 4.0 | 14.0 | 0.00 | 0.00 | 0.00 | 67 | 1013.5 |
| 20260903182052 | 75 | 175 | 1.0 | 10.0 | 0.00 | 0.00 | 0.00 | 67 | 1013.6 |
| 20260903181639 | 74 | 46 | 2.0 | 10.0 | 0.00 | 0.00 | 0.00 | 68 | 1013.6 |
| 20260903181051 | 74 | 220 | 2.0 | 7.0 | 0.00 | 0.00 | 0.00 | 68 | 1013.6 |
| 20260903180551 | 74 | 146 | 2.0 | 7.0 | 0.00 | 0.00 | 0.00 | 68 | 1013.6 |
| 20260903180059 | 73 | 252 | 2.0 | 7.0 | 0.00 | 0.00 | 0.00 | 69 | 1013.6 |
| 20260903175550 | 73 | 171 | 3.0 | 6.0 | 0.00 | 0.00 | 0.00 | 69 | 1013.6 |
| 20260903175058 | 73 | 176 | 0.0 | 8.0 | 0.00 | 0.00 | 0.00 | 71 | 1013.7 |
| 20260903174600 | 72 | 0 | 0.0 | 8.0 | 0.00 | 0.00 | 0.00 | 73 | 1013.7 |
| 20260903174055 | 72 | 193 | 3.0 | 8.0 | 0.00 | 0.00 | 0.00 | 71 | 1013.7 |
| 20260903173554 | 72 | 13 | 2.0 | 6.0 | 0.00 | 0.00 | 0.00 | 71 | 1013.6 |
| 20260903173112 | 72 | 204 | 0.0 | 4.0 | 0.00 | 0.00 | 0.00 | 71 | 1013.7 |
| 20260903172552 | 72 | 288 | 1.0 | 8.0 | 0.00 | 0.00 | 0.00 | 71 | 1013.7 |
| 20260903172054 | 72 | 0 | 1.0 | 8.0 | 0.00 | 0.00 | 0.00 | 72 | 1013.7 |
| 20260903171606 | 71 | 0 | 3.0 | 8.0 | 0.00 | 0.00 | 0.00 | 72 | 1013.7 |
| 20260903171051 | 71 | 0 | 3.0 | 8.0 | 0.00 | 0.00 | 0.00 | 71 | 1013.7 |
| 20260903170552 | 71 | 207 | 2.0 | 8.0 | 0.00 | 0.00 | 0.00 | 73 | 1013.7 |
| 20260903170056 | 71 | 96 | 3.0 | 8.0 | 0.00 | 0.00 | 0.00 | 73 | 1013.7 |
| 20260903165553 | 70 | 119 | 2.0 | 7.0 | 0.00 | 0.00 | 0.00 | 75 | 1013.7 |
| 20260903165057 | 70 | 0 | 0.0 | 8.0 | 0.00 | 0.00 | 0.00 | 76 | 1013.6 |
| 20260903164602 | 70 | 116 | 1.0 | 9.0 | 0.00 | 0.00 | 0.00 | 76 | 1013.6 |
| 20260903164056 | 70 | 173 | 3.0 | 9.0 | 0.00 | 0.00 | 0.00 | 76 | 1013.6 |
| 20260903163557 | 70 | 0 | 2.0 | 6.0 | 0.00 | 0.00 | 0.00 | 77 | 1013.6 |
| 20260903163106 | 69 | 0 | 1.0 | 4.0 | 0.00 | 0.00 | 0.00 | 77 | 1013.7 |
| 20260903162556 | 69 | 111 | 0.0 | 3.0 | 0.00 | 0.00 | 0.00 | 78 | 1013.6 |
| 20260903162056 | 69 | 0 | 0.0 | 2.0 | 0.00 | 0.00 | 0.00 | 79 | 1013.6 |
| 20260903161614 | 69 | 230 | 0.0 | 7.0 | 0.00 | 0.00 | 0.00 | 79 | 1013.6 |
| 20260903161056 | 69 | 0 | 1.0 | 7.0 | 0.00 | 0.00 | 0.00 | 79 | 1013.6 |
| 20260903160556 | 69 | 191 | 1.0 | 7.0 | 0.00 | 0.00 | 0.00 | 79 | 1013.5 |
| 20260903160106 | 69 | 167 | 1.0 | 4.0 | 0.00 | 0.00 | 0.00 | 79 | 1013.6 |
| 20260903155556 | 68 | 0 | 0.0 | 4.0 | 0.00 | 0.00 | 0.00 | 80 | 1013.6 |
| 20260903155057 | 68 | 72 | 1.0 | 6.0 | 0.00 | 0.00 | 0.00 | 80 | 1013.6 |
| 20260903154606 | 69 | 65 | 1.0 | 6.0 | 0.00 | 0.00 | 0.00 | 80 | 1013.6 |
| 20260903154056 | 69 | 65 | 2.0 | 6.0 | 0.00 | 0.00 | 0.00 | 79 | 1013.7 |
| 20260903153556 | 69 | 115 | 1.0 | 5.0 | 0.00 | 0.00 | 0.00 | 79 | 1013.7 |
| 20260903153106 | 69 | 98 | 1.0 | 5.0 | 0.00 | 0.00 | 0.00 | 79 | 1013.6 |
| 20260903152557 | 69 | 190 | 0.0 | 3.0 | 0.00 | 0.00 | 0.00 | 80 | 1013.5 |
| 20260903152058 | 69 | 83 | 0.0 | 3.0 | 0.00 | 0.00 | 0.00 | 80 | 1013.6 |
| 20260903151612 | 68 | 102 | 0.0 | 2.0 | 0.00 | 0.00 | 0.00 | 81 | 1013.5 |
| 20260903151057 | 68 | 194 | 0.0 | 2.0 | 0.00 | 0.00 | 0.00 | 82 | 1013.5 |
| 20260903150557 | 68 | 5 | 0.0 | 2.0 | 0.00 | 0.00 | 0.00 | 83 | 1013.4 |
| 20260903150058 | 67 | 0 | 0.0 | 0.0 | 0.00 | 0.00 | 0.00 | 83 | 1013.5 |
| 20260903145557 | 67 | 0 | 0.0 | 0.0 | 0.00 | 0.00 | 0.00 | 84 | 1013.4 |
| 20260903145057 | 66 | 0 | 0.0 | 3.0 | 0.00 | 0.00 | 0.00 | 85 | 1013.4 |
| 20260903144607 | 66 | 0 | 0.0 | 3.0 | 0.00 | 0.00 | 0.00 | 85 | 1013.5 |
| 20260903144057 | 66 | 0 | 0.0 | 2.0 | 0.00 | 0.00 | 0.00 | 86 | 1013.4 |
| 20260903143557 | 66 | 0 | 0.0 | 2.0 | 0.00 | 0.00 | 0.00 | 87 | 1013.3 |
| 20260903143101 | 66 | 0 | 0.0 | 3.0 | 0.00 | 0.00 | 0.00 | 87 | 1013.2 |
| 20260903142556 | 66 | 59 | 1.0 | 3.0 | 0.00 | 0.00 | 0.00 | 87 | 1013.2 |
| 20260903142055 | 66 | 0 | 0.0 | 0.0 | 0.00 | 0.00 | 0.00 | 88 | 1013.2 |
| 20260903141605 | 66 | 0 | 0.0 | 0.0 | 0.00 | 0.00 | 0.00 | 88 | 1013.2 |
| 20260903141056 | 66 | 0 | 0.0 | 0.0 | 0.00 | 0.00 | 0.00 | 88 | 1013.2 |
| 20260903140555 | 66 | 0 | 0.0 | 1.0 | 0.00 | 0.00 | 0.00 | 88 | 1013.1 |
| 20260903135557 | 66 | 0 | 0.0 | 1.0 | 0.00 | 0.00 | 0.00 | 88 | 1013.0 |
| 20260903135057 | 65 | 0 | 0.0 | 2.0 | 0.00 | 0.00 | 0.00 | 88 | 1013.0 |
| 20260903134606 | 65 | 0 | 0.0 | 2.0 | 0.00 | 0.00 | 0.00 | 88 | 1012.9 |
| 20260903134054 | 65 | 0 | 0.0 | 2.0 | 0.00 | 0.00 | 0.00 | 88 | 1013.0 |
| 20260903133552 | 65 | 0 | 0.0 | 2.0 | 0.00 | 0.00 | 0.00 | 88 | 1013.0 |
| 20260903133103 | 65 | 0 | 0.0 | 2.0 | 0.00 | 0.00 | 0.00 | 88 | 1013.0 |
| 20260903132551 | 65 | 0 | 0.0 | 2.0 | 0.00 | 0.00 | 0.00 | 88 | 1013.0 |
| 20260903132051 | 65 | 0 | 0.0 | 3.0 | 0.00 | 0.00 | 0.00 | 87 | 1013.0 |
| 20260903131604 | 65 | 0 | 0.0 | 3.0 | 0.00 | 0.00 | 0.00 | 87 | 1012.9 |
| 20260903131050 | 65 | 62 | 0.0 | 2.0 | 0.00 | 0.00 | 0.00 | 87 | 1012.9 |
| 20260903130552 | 65 | 0 | 0.0 | 3.0 | 0.00 | 0.00 | 0.00 | 87 | 1013.0 |
| 20260903130109 | 65 | 52 | 0.0 | 3.0 | 0.00 | 0.00 | 0.00 | 87 | 1013.0 |
| 20260903125552 | 65 | 41 | 0.0 | 4.0 | 0.00 | 0.00 | 0.00 | 87 | 1012.9 |
| 20260903125054 | 65 | 0 | 1.0 | 4.0 | 0.00 | 0.00 | 0.00 | 87 | 1013.0 |
| 20260903124605 | 65 | 69 | 1.0 | 4.0 | 0.00 | 0.00 | 0.00 | 86 | 1013.0 |
| 20260903124055 | 65 | 90 | 1.0 | 3.0 | 0.00 | 0.00 | 0.00 | 86 | 1012.9 |
| 20260903123554 | 65 | 0 | 1.0 | 3.0 | 0.00 | 0.00 | 0.00 | 86 | 1012.9 |
| 20260903123107 | 65 | 63 | 1.0 | 3.0 | 0.00 | 0.00 | 0.00 | 86 | 1012.9 |
| 20260903122551 | 65 | 0 | 0.0 | 2.0 | 0.00 | 0.00 | 0.00 | 86 | 1012.9 |
| 20260903122051 | 65 | 0 | 0.0 | 0.0 | 0.00 | 0.00 | 0.00 | 86 | 1012.8 |
| 20260903121602 | 65 | 0 | 0.0 | 1.0 | 0.00 | 0.00 | 0.00 | 86 | 1012.9 |
| 20260903121051 | 64 | 0 | 0.0 | 3.0 | 0.00 | 0.00 | 0.00 | 86 | 1012.9 |
| 20260903120555 | 64 | 0 | 0.0 | 3.0 | 0.00 | 0.00 | 0.00 | 86 | 1012.9 |
| 20260903120056 | 64 | 56 | 0.0 | 3.0 | 0.00 | 0.00 | 0.00 | 86 | 1013.0 |
| 20260903115554 | 64 | 0 | 0.0 | 3.0 | 0.00 | 0.00 | 0.00 | 86 | 1012.9 |
| 20260903115054 | 64 | 71 | 0.0 | 0.0 | 0.00 | 0.00 | 0.00 | 87 | 1013.1 |
| 20260903114557 | 64 | 0 | 0.0 | 2.0 | 0.00 | 0.00 | 0.00 | 86 | 1013.0 |
| 20260903114051 | 64 | 0 | 0.0 | 2.0 | 0.00 | 0.00 | 0.00 | 86 | 1013.0 |
| 20260903113554 | 64 | 0 | 0.0 | 2.0 | 0.00 | 0.00 | 0.00 | 86 | 1013.1 |
| 20260903113103 | 64 | 0 | 0.0 | 3.0 | 0.00 | 0.00 | 0.00 | 86 | 1013.1 |
| 20260903112554 | 64 | 0 | 0.0 | 3.0 | 0.00 | 0.00 | 0.00 | 86 | 1013.1 |
| 20260903112051 | 64 | 0 | 0.0 | 1.0 | 0.00 | 0.00 | 0.00 | 86 | 1013.2 |
| 20260903111601 | 64 | 0 | 0.0 | 2.0 | 0.00 | 0.00 | 0.00 | 86 | 1013.1 |
| 20260903111051 | 64 | 0 | 0.0 | 2.0 | 0.00 | 0.00 | 0.00 | 86 | 1013.1 |
| 20260903110551 | 64 | 0 | 0.0 | 2.0 | 0.00 | 0.00 | 0.00 | 86 | 1013.1 |
| 20260903110106 | 64 | 0 | 1.0 | 2.0 | 0.00 | 0.00 | 0.00 | 86 | 1013.2 |
| 20260903105557 | 64 | 0 | 0.0 | 0.0 | 0.00 | 0.00 | 0.00 | 85 | 1013.2 |
| 20260903105055 | 64 | 0 | 0.0 | 0.0 | 0.00 | 0.00 | 0.00 | 85 | 1013.1 |
| 20260903104603 | 64 | 0 | 0.0 | 2.0 | 0.00 | 0.00 | 0.00 | 85 | 1013.2 |
| 20260903104051 | 64 | 0 | 0.0 | 3.0 | 0.00 | 0.00 | 0.00 | 85 | 1013.1 |
| 20260903103551 | 64 | 0 | 0.0 | 3.0 | 0.00 | 0.00 | 0.00 | 85 | 1013.2 |
| 20260903103105 | 64 | 29 | 0.0 | 2.0 | 0.00 | 0.00 | 0.00 | 85 | 1013.1 |
| 20260903102552 | 64 | 41 | 0.0 | 2.0 | 0.00 | 0.00 | 0.00 | 85 | 1013.2 |
| 20260903102054 | 64 | 41 | 0.0 | 3.0 | 0.00 | 0.00 | 0.00 | 85 | 1013.2 |
| 20260903101558 | 64 | 0 | 0.0 | 3.0 | 0.00 | 0.00 | 0.00 | 85 | 1013.2 |
| 20260903101051 | 64 | 0 | 0.0 | 3.0 | 0.00 | 0.00 | 0.00 | 84 | 1013.2 |
| 20260903100556 | 64 | 0 | 0.0 | 3.0 | 0.00 | 0.00 | 0.00 | 84 | 1013.1 |
| 20260903100058 | 64 | 0 | 0.0 | 3.0 | 0.00 | 0.00 | 0.00 | 84 | 1013.2 |
| 20260903095554 | 64 | 0 | 0.0 | 3.0 | 0.00 | 0.00 | 0.00 | 83 | 1013.1 |
| 20260903095054 | 64 | 0 | 0.0 | 3.0 | 0.00 | 0.00 | 0.00 | 83 | 1013.2 |
| 20260903094607 | 64 | 18 | 0.0 | 4.0 | 0.00 | 0.00 | 0.00 | 83 | 1013.2 |
| 20260903094054 | 64 | 0 | 0.0 | 4.0 | 0.00 | 0.00 | 0.00 | 83 | 1013.3 |
| 20260903093552 | 64 | 40 | 0.0 | 3.0 | 0.00 | 0.00 | 0.00 | 83 | 1013.3 |
| 20260903093104 | 65 | 0 | 0.0 | 2.0 | 0.00 | 0.00 | 0.00 | 83 | 1013.3 |
| 20260903092551 | 65 | 13 | 0.0 | 2.0 | 0.00 | 0.00 | 0.00 | 82 | 1013.3 |
| 20260903092051 | 65 | 0 | 0.0 | 3.0 | 0.00 | 0.00 | 0.00 | 82 | 1013.4 |
| 20260903091606 | 65 | 0 | 0.0 | 3.0 | 0.00 | 0.00 | 0.00 | 82 | 1013.5 |
| 20260903091054 | 65 | 0 | 0.0 | 3.0 | 0.00 | 0.00 | 0.00 | 82 | 1013.5 |
| 20260903090555 | 65 | 24 | 0.0 | 3.0 | 0.00 | 0.00 | 0.00 | 82 | 1013.6 |
| 20260903090059 | 65 | 31 | 1.0 | 4.0 | 0.00 | 0.00 | 0.00 | 81 | 1013.5 |
| 20260903085554 | 65 | 36 | 0.0 | 4.0 | 0.00 | 0.00 | 0.00 | 81 | 1013.5 |
| 20260903085054 | 65 | 15 | 1.0 | 4.0 | 0.00 | 0.00 | 0.00 | 81 | 1013.6 |
| 20260903084559 | 65 | 0 | 0.0 | 0.0 | 0.00 | 0.00 | 0.00 | 81 | 1013.6 |
| 20260903084054 | 65 | 0 | 0.0 | 0.0 | 0.00 | 0.00 | 0.00 | 81 | 1013.7 |
| 20260903083554 | 65 | 0 | 0.0 | 0.0 | 0.00 | 0.00 | 0.00 | 80 | 1013.7 |
| 20260903083103 | 65 | 0 | 0.0 | 0.0 | 0.00 | 0.00 | 0.00 | 80 | 1013.7 |
| 20260903082554 | 65 | 0 | 0.0 | 0.0 | 0.00 | 0.00 | 0.00 | 80 | 1013.7 |
| 20260903082054 | 65 | 0 | 0.0 | 0.0 | 0.00 | 0.00 | 0.00 | 79 | 1013.8 |
| 20260903081556 | 65 | 0 | 0.0 | 0.0 | 0.00 | 0.00 | 0.00 | 79 | 1013.8 |
| 20260903081051 | 65 | 0 | 0.0 | 0.0 | 0.00 | 0.00 | 0.00 | 79 | 1013.9 |
| 20260903080555 | 65 | 0 | 0.0 | 0.0 | 0.00 | 0.00 | 0.00 | 78 | 1013.9 |
| 20260903080106 | 65 | 0 | 0.0 | 0.0 | 0.00 | 0.00 | 0.00 | 78 | 1013.9 |
| 20260903075555 | 65 | 0 | 0.0 | 2.0 | 0.00 | 0.00 | 0.00 | 78 | 1013.9 |
| 20260903075055 | 65 | 0 | 0.0 | 2.0 | 0.00 | 0.00 | 0.00 | 78 | 1013.9 |
| 20260903074559 | 66 | 0 | 0.0 | 2.0 | 0.00 | 0.00 | 0.00 | 78 | 1013.9 |
| 20260903074054 | 66 | 0 | 0.0 | 2.0 | 0.00 | 0.00 | 0.00 | 78 | 1013.8 |
| 20260903073554 | 66 | 0 | 0.0 | 0.0 | 0.00 | 0.00 | 0.00 | 78 | 1013.9 |
| 20260903073113 | 65 | 0 | 0.0 | 0.0 | 0.00 | 0.00 | 0.00 | 78 | 1013.8 |
| 20260903072554 | 65 | 0 | 0.0 | 0.0 | 0.00 | 0.00 | 0.00 | 77 | 1013.8 |
| 20260903072051 | 65 | 0 | 0.0 | 0.0 | 0.00 | 0.00 | 0.00 | 76 | 1013.8 |
| 20260903071602 | 65 | 0 | 0.0 | 0.0 | 0.00 | 0.00 | 0.00 | 76 | 1013.8 |
| 20260903071059 | 65 | 0 | 0.0 | 0.0 | 0.00 | 0.00 | 0.00 | 75 | 1013.8 |
| 20260903070600 | 65 | 0 | 0.0 | 0.0 | 0.00 | 0.00 | 0.00 | 75 | 1013.9 |
| 20260903070107 | 65 | 0 | 0.0 | 0.0 | 0.00 | 0.00 | 0.00 | 75 | 1013.9 |
| 20260903065557 | 65 | 0 | 0.0 | 0.0 | 0.00 | 0.00 | 0.00 | 75 | 1013.8 |
| 20260903065056 | 65 | 0 | 0.0 | 0.0 | 0.00 | 0.00 | 0.00 | 75 | 1013.8 |
| 20260903064606 | 65 | 0 | 0.0 | 0.0 | 0.00 | 0.00 | 0.00 | 74 | 1013.8 |
| 20260903064056 | 65 | 0 | 0.0 | 0.0 | 0.00 | 0.00 | 0.00 | 74 | 1013.7 |
| 20260903063556 | 65 | 0 | 0.0 | 0.0 | 0.00 | 0.00 | 0.00 | 74 | 1013.7 |
| 20260903063126 | 65 | 0 | 0.0 | 0.0 | 0.00 | 0.00 | 0.00 | 74 | 1013.7 |
| 20260903062557 | 65 | 0 | 0.0 | 0.0 | 0.00 | 0.00 | 0.00 | 73 | 1013.7 |
| 20260903062056 | 65 | 0 | 0.0 | 0.0 | 0.00 | 0.00 | 0.00 | 73 | 1013.7 |
| 20260903061559 | 65 | 0 | 0.0 | 0.0 | 0.00 | 0.00 | 0.00 | 73 | 1013.7 |
| 20260903061058 | 65 | 0 | 0.0 | 0.0 | 0.00 | 0.00 | 0.00 | 73 | 1013.7 |
| 20260903060557 | 65 | 0 | 0.0 | 0.0 | 0.00 | 0.00 | 0.00 | 73 | 1013.6 |
| 20260903060109 | 66 | 0 | 0.0 | 0.0 | 0.00 | 0.00 | 0.00 | 73 | 1013.5 |
| 20260903055557 | 66 | 0 | 0.0 | 0.0 | 0.00 | 0.00 | 0.00 | 73 | 1013.6 |
| 20260903055056 | 66 | 0 | 0.0 | 0.0 | 0.00 | 0.00 | 0.00 | 73 | 1013.5 |
| 20260903054607 | 66 | 0 | 0.0 | 0.0 | 0.00 | 0.00 | 0.00 | 73 | 1013.5 |
| 20260903054056 | 66 | 0 | 0.0 | 0.0 | 0.00 | 0.00 | 0.00 | 73 | 1013.4 |
| 20260903053556 | 67 | 0 | 0.0 | 0.0 | 0.00 | 0.00 | 0.00 | 73 | 1013.4 |
| 20260903053104 | 67 | 0 | 0.0 | 3.0 | 0.00 | 0.00 | 0.00 | 73 | 1013.5 |
| 20260903052556 | 67 | 0 | 0.0 | 3.0 | 0.00 | 0.00 | 0.00 | 73 | 1013.6 |
| 20260903052059 | 67 | 49 | 0.0 | 2.0 | 0.00 | 0.00 | 0.00 | 73 | 1013.5 |
| 20260903051600 | 67 | 0 | 0.0 | 2.0 | 0.00 | 0.00 | 0.00 | 73 | 1013.5 |
| 20260903051056 | 67 | 0 | 0.0 | 3.0 | 0.00 | 0.00 | 0.00 | 73 | 1013.5 |
| 20260903050558 | 67 | 39 | 0.0 | 5.0 | 0.00 | 0.00 | 0.00 | 73 | 1013.4 |
| 20260903050059 | 67 | 38 | 0.0 | 5.0 | 0.00 | 0.00 | 0.00 | 73 | 1013.4 |
| 20260903045557 | 67 | 38 | 0.0 | 3.0 | 0.00 | 0.00 | 0.00 | 73 | 1013.4 |
| 20260903045058 | 67 | 24 | 1.0 | 4.0 | 0.00 | 0.00 | 0.00 | 73 | 1013.3 |
| 20260903044605 | 67 | 0 | 0.0 | 4.0 | 0.00 | 0.00 | 0.00 | 73 | 1013.2 |
| 20260903044056 | 67 | 28 | 1.0 | 3.0 | 0.00 | 0.00 | 0.00 | 73 | 1013.3 |
| 20260903043555 | 67 | 0 | 0.0 | 3.0 | 0.00 | 0.00 | 0.00 | 73 | 1013.4 |
| 20260903043108 | 67 | 61 | 0.0 | 4.0 | 0.00 | 0.00 | 0.00 | 73 | 1013.3 |
| 20260903042557 | 67 | 13 | 1.0 | 4.0 | 0.00 | 0.00 | 0.00 | 73 | 1013.3 |
| 20260903042059 | 68 | 23 | 1.0 | 4.0 | 0.00 | 0.00 | 0.00 | 73 | 1013.3 |
| 20260903041600 | 68 | 28 | 0.0 | 3.0 | 0.00 | 0.00 | 0.00 | 73 | 1013.4 |
| 20260903041056 | 68 | 22 | 1.0 | 3.0 | 0.00 | 0.00 | 0.00 | 73 | 1013.4 |
| 20260903040559 | 68 | 5 | 1.0 | 3.0 | 0.00 | 0.00 | 0.00 | 73 | 1013.4 |
| 20260903040055 | 68 | 30 | 0.0 | 4.0 | 0.00 | 0.00 | 0.00 | 73 | 1013.3 |
| 20260903035555 | 68 | 33 | 0.0 | 4.0 | 0.00 | 0.00 | 0.00 | 73 | 1013.3 |
| 20260903035054 | 68 | 29 | 1.0 | 4.0 | 0.00 | 0.00 | 0.00 | 72 | 1013.3 |
| 20260903034600 | 68 | 35 | 1.0 | 3.0 | 0.00 | 0.00 | 0.00 | 72 | 1013.3 |
| 20260903034050 | 68 | 34 | 0.0 | 3.0 | 0.00 | 0.00 | 0.00 | 72 | 1013.2 |
| 20260903033553 | 68 | 5 | 0.0 | 3.0 | 0.00 | 0.00 | 0.00 | 72 | 1013.2 |
| 20260903033103 | 68 | 30 | 0.0 | 3.0 | 0.00 | 0.00 | 0.00 | 72 | 1013.2 |
| 20260903032555 | 68 | 0 | 0.0 | 3.0 | 0.00 | 0.00 | 0.00 | 72 | 1013.0 |
| 20260903032056 | 69 | 0 | 0.0 | 2.0 | 0.00 | 0.00 | 0.00 | 72 | 1013.2 |
| 20260903031602 | 69 | 30 | 1.0 | 2.0 | 0.00 | 0.00 | 0.00 | 71 | 1013.1 |
| 20260903031056 | 69 | 29 | 0.0 | 2.0 | 0.00 | 0.00 | 0.00 | 71 | 1013.1 |
| 20260903030555 | 69 | 26 | 0.0 | 2.0 | 0.00 | 0.00 | 0.00 | 71 | 1013.0 |
| 20260903030107 | 69 | 0 | 0.0 | 3.0 | 0.00 | 0.00 | 0.00 | 70 | 1013.0 |
| 20260903025554 | 69 | 0 | 0.0 | 3.0 | 0.00 | 0.00 | 0.00 | 70 | 1013.0 |
| 20260903025054 | 69 | 74 | 1.0 | 3.0 | 0.00 | 0.00 | 0.00 | 69 | 1012.9 |
| 20260903024557 | 70 | 0 | 0.0 | 3.0 | 0.00 | 0.00 | 0.00 | 69 | 1012.9 |
| 20260903024054 | 70 | 0 | 1.0 | 3.0 | 0.00 | 0.00 | 0.00 | 69 | 1012.9 |
| 20260903023550 | 70 | 63 | 1.0 | 4.0 | 0.00 | 0.00 | 0.00 | 68 | 1013.0 |
| 20260903023101 | 70 | 63 | 2.0 | 4.0 | 0.00 | 0.00 | 0.00 | 68 | 1013.0 |
| 20260903022554 | 71 | 69 | 1.0 | 3.0 | 0.00 | 0.00 | 0.00 | 67 | 1013.0 |
| 20260903022054 | 71 | 70 | 1.0 | 2.0 | 0.00 | 0.00 | 0.00 | 67 | 1013.0 |
| 20260903021557 | 71 | 58 | 0.0 | 1.0 | 0.00 | 0.00 | 0.00 | 66 | 1013.0 |
| 20260903021054 | 71 | 0 | 0.0 | 3.0 | 0.00 | 0.00 | 0.00 | 66 | 1013.0 |
| 20260903020554 | 71 | 0 | 0.0 | 3.0 | 0.00 | 0.00 | 0.00 | 66 | 1013.0 |
| 20260903015554 | 71 | 259 | 0.0 | 5.0 | 0.00 | 0.00 | 0.00 | 66 | 1013.0 |
| 20260903015054 | 71 | 233 | 1.0 | 8.0 | 0.00 | 0.00 | 0.00 | 69 | 1013.1 |
| 20260903014602 | 71 | 209 | 3.0 | 8.0 | 0.00 | 0.00 | 0.00 | 69 | 1013.0 |
| 20260903014051 | 71 | 142 | 4.0 | 8.0 | 0.00 | 0.00 | 0.00 | 69 | 1013.1 |
| 20260903013554 | 71 | 162 | 5.0 | 8.0 | 0.00 | 0.00 | 0.00 | 68 | 1013.0 |
| 20260903013105 | 72 | 0 | 3.0 | 8.0 | 0.00 | 0.00 | 0.00 | 69 | 1013.0 |
| 20260903012556 | 72 | 193 | 2.0 | 9.0 | 0.00 | 0.00 | 0.00 | 69 | 1013.0 |
| 20260903012054 | 72 | 258 | 3.0 | 9.0 | 0.00 | 0.00 | 0.00 | 68 | 1013.0 |
| 20260903011611 | 72 | 157 | 4.0 | 9.0 | 0.00 | 0.00 | 0.00 | 68 | 1013.0 |
| 20260903011055 | 72 | 149 | 3.0 | 9.0 | 0.00 | 0.00 | 0.00 | 68 | 1013.1 |
| 20260903010554 | 72 | 254 | 5.0 | 10.0 | 0.00 | 0.00 | 0.00 | 68 | 1013.1 |
| 20260903010142 | 72 | 297 | 7.0 | 12.0 | 0.00 | 0.00 | 0.00 | 66 | 1013.1 |